Regional Weather Roundup
Issued by NWS

Home | Current Version | Previous Version | Graphics & Text | Print | Product List | Glossary On
Versions: 1 2 3 4 5 6 7 8 9 10 11 12 13 14 15 16 17 18 19 20 21 22 23 24 25 26 27 28 29 30 31 32 33 34 35 36 37 38 39 40 41 42 43 44 45 46 47 48 49 50
000
ASUS43 KTOP 311759
RWRKS

WEATHER ROUNDUP FOR KANSAS
NATIONAL WEATHER SERVICE GOODLAND KS
100 PM CDT FRI JUL 31 2015

NOTE:  "FAIR" INDICATES FEW OR NO CLOUDS BELOW 12,000 FEET WITH NO
SIGNIFICANT WEATHER AND/OR OBSTRUCTIONS TO VISIBILITY.

KSZ001>006-013>018-027>032-041>047-311900-
NORTHWEST KANSAS

CITY           SKY/WX    TMP DP  RH WIND       PRES   REMARKS
GOODLAND       MOSUNNY   83  63  50 SW9       30.26F
6HR MIN TEMP:  57; 6HR MAX TEMP:  85;

HAYS           SUNNY     88  63  42 W7        30.18F
HILL CITY      SUNNY     89  67  47 W6        30.19F
6HR MIN TEMP:  67; 6HR MAX TEMP:  89;

RUSSELL        SUNNY     88  67  49 W6        30.17F
6HR MIN TEMP:  66; 6HR MAX TEMP:  88;

$$

KSZ061>065-074>080-084>089-311900-
SOUTHWEST KANSAS

CITY           SKY/WX    TMP DP  RH WIND       PRES   REMARKS
DODGE CITY     CLOUDY    82  65  56 SW5       30.23F
ELKHART          N/A     70  63  79 SE8         N/A
GARDEN CITY    MOSUNNY   83  69  62 S9        30.24S
6HR MIN TEMP:  67; 6HR MAX TEMP:  84;

GREAT BEND     SUNNY     84  66  54 SW7       30.18F
LIBERAL        CLOUDY    72  64  78 W12       30.28S
$$

KSZ066>073-081>083-090>101-311900-
SOUTHEAST KANSAS

CITY           SKY/WX    TMP DP  RH WIND       PRES   REMARKS
CHANUTE        MOSUNNY   88  61  40 CALM      30.15F
6HR MIN TEMP:  67; 6HR MAX TEMP:  89;

COFFEYVILLE    SUNNY     87  70  56 VRB6      30.15F
6HR MIN TEMP:  74; 6HR MAX TEMP:  87;

HUTCHINSON     SUNNY     87  69  54 VRB6      30.18F
6HR MIN TEMP:  67; 6HR MAX TEMP:  87;

MEDICINE LODGE   N/A     86  70  58 CALM      30.19S
NEWTON         SUNNY     84  64  51 CALM      30.20F
PARSONS        PTSUNNY   86  73  65 S5        30.16F
6HR MIN TEMP:  71; 6HR MAX TEMP:  87;

WICHITA INTL   PTSUNNY   88  67  49 CALM      30.16F
6HR MIN TEMP:  72; 6HR MAX TEMP:  88;

WICHITA JABRA  SUNNY     88  66  48 VRB6      30.16F
6HR MIN TEMP:  69; 6HR MAX TEMP:  88;

WINFIELD       MOSUNNY   87  72  60 S5        30.16F
6HR MIN TEMP:  72; 6HR MAX TEMP:  87;

$$

KSZ007>012-019>026-033>040-048>060-102>105-311900-
NORTHEAST KANSAS

CITY           SKY/WX    TMP DP  RH WIND       PRES   REMARKS
CONCORDIA      SUNNY     88  66  48 SW7       30.16F
6HR MIN TEMP:  68; 6HR MAX TEMP:  88;

EMPORIA        SUNNY     86  65  49 CALM      30.16F
6HR MIN TEMP:  65; 6HR MAX TEMP:  86;

LAWRENCE       SUNNY     87  66  49 NW5       30.14F
6HR MIN TEMP:  60; 6HR MAX TEMP:  88;

MANHATTAN      SUNNY     87  70  56 CALM      30.14F
6HR MIN TEMP:  64; 6HR MAX TEMP:  87;

OLATHE IND     SUNNY     87  62  43 S6        30.15F
6HR MIN TEMP:  65; 6HR MAX TEMP:  87;

OLATHE EXE     SUNNY     85  63  47 SW6       30.14F
6HR MIN TEMP:  65; 6HR MAX TEMP:  85;

SALINA         MOSUNNY   88  69  53 VRB6      30.16F
6HR MIN TEMP:  67; 6HR MAX TEMP:  89;

TOPEKA BILLARD SUNNY     87  68  52 N3        30.14F
6HR MIN TEMP:  64; 6HR MAX TEMP:  87;

TOPEKA FORBES  SUNNY     87  63  44 S5        30.15F
6HR MIN TEMP:  65; 6HR MAX TEMP:  88;

$$



USA.gov is the U.S. government's official web portal to all federal, state and local government web resources and services.